This is the latest recevied weather packets stored in our database for station/object E20ZNR-1. If no packets are shown the sender has not sent any weather packets the latest 10 day(s).
| Time | Temp. | Humidity | Pressure | Rain* | Wind** | Luminosity | Snow |
|---|---|---|---|---|---|---|---|
| 1777808500 | 30° C | 73% | 1003 hPa | - | - | 0 W/m² | - |
| 1777807576 | 30.56° C | 72% | 1003 hPa | - | - | 0 W/m² | - |
| 1777806651 | 31.67° C | 69% | 1003 hPa | - | - | 0 W/m² | - |
| 1777805726 | 33.33° C | 62% | 1002 hPa | - | - | 0 W/m² | - |
| 1777804800 | 34.44° C | 64% | 1001 hPa | - | - | 0 W/m² | - |
| 1777803876 | 34.44° C | 68% | 1001 hPa | - | - | 0 W/m² | - |
| 1777802950 | 34.44° C | 66% | 1001 hPa | - | - | 0 W/m² | - |
| 1777802025 | 34.44° C | 66% | 1001 hPa | - | - | 0 W/m² | - |
| 1777801100 | 34.44° C | 69% | 1001 hPa | - | - | 0 W/m² | - |
| 1777800176 | 35° C | 58% | 1000 hPa | - | - | 0 W/m² | - |
| 1777799251 | 35.56° C | 57% | 1001 hPa | - | - | 0 W/m² | - |
| 1777798326 | 36.11° C | 47% | 1001 hPa | - | - | 0 W/m² | - |
| 1777797400 | 37.22° C | 48% | 1001 hPa | - | - | 0 W/m² | - |
| 1777796476 | 38.89° C | 47% | 1001 hPa | - | - | 0 W/m² | - |
| 1777795551 | 37.78° C | 45% | 1001 hPa | - | - | 0 W/m² | - |
| 1777794626 | 38.89° C | 45% | 1001 hPa | - | - | 0 W/m² | - |
| 1777793701 | 40.56° C | 43% | 1001 hPa | - | - | 0 W/m² | - |
| 1777792777 | 39.44° C | 43% | 1002 hPa | - | - | 0 W/m² | - |
| 1777791852 | 39.44° C | 42% | 1002 hPa | - | - | 0 W/m² | - |
| 1777790927 | 41.11° C | 39% | 1002 hPa | - | - | 0 W/m² | - |
| 1777790002 | 41.67° C | 38% | 1003 hPa | - | - | 0 W/m² | - |
| 1777789078 | 41.67° C | 40% | 1003 hPa | - | - | 0 W/m² | - |
| 1777788152 | 39.44° C | 45% | 1004 hPa | - | - | 0 W/m² | - |
| 1777787227 | 38.33° C | 50% | 1004 hPa | - | - | 0 W/m² | - |
| 1777786302 | 38.33° C | 50% | 1004 hPa | - | - | 0 W/m² | - |
* Rain since midnight (hover to see other rain measurements)
** Current wind speed in m/s (hover to see current wind gust speed)